Tracking 19706 objects as of 16-Jun-2019
HD Live streaming from Space Station
objects crossing your sky now

THORAD AGENA D DEB

Track THORAD AGENA D DEB now!
10-day predictions


NORAD ID: 4921
Int'l Code: 1970-025FT
Perigee: 764.0 km
Apogee: 841.7 km
Inclination: 99.8 °
Period: 100.8 minutes
Semi major axis: 7173 km
RCS: 0.0571 m2 (small)
Launch date: April 8, 1970
Source: United States (US)
Launch site: AIR FORCE WESTERN TEST RANGE (AFWTR)

Note: This is SATELLITE DEBRIS
aabbcc
Your satellite tracking list
Your tracking list is empty




NASA's NSSDC Master Catalog

Two Line Element Set (TLE):
1  4921U 70025FT  19167.14042778  .00000647  00000-0  27384-3 0  9991
2  4921  99.7554 334.2278 0054168 210.4467 149.3562 14.28806342508780
Source of the keplerian elements: AFSPC